<?xml version="1.0" encoding="UTF-8" standalone="no" ?>
<gpx xmlns="http://www.topografix.com/GPX/1/1" xmlns:xsi="http://www.w3.org/2001/XMLSchema-instance" xsi:schemaLocation="http://www.topografix.com/GPX/1/1 http://www.topografix.com/GPX/1/1/gpx.xsd" version="1.1" creator="VisuGPX - https://www.visugpx.com">
  <metadata>
    <name>Collines de Manosque - Alpes de Haute-Provence</name>
    <desc><![CDATA[Collines de Manosque - Alpes de Haute-Provence

Arrivée Départ : Manosque]]></desc>
  </metadata>
  <trk>
    <name><![CDATA[008 Hauts villages entre Durance et Luberon]]></name>
    <trkseg>
      <trkpt lat="43.83136" lon="5.78309">
        <ele>378</ele>
        <time>2007-08-22T10:43:02Z</time>
      </trkpt>
      <trkpt lat="43.8332" lon="5.786">
        <ele>369</ele>
        <time>2007-08-22T10:43:02Z</time>
      </trkpt>
      <trkpt lat="43.82996" lon="5.79195">
        <ele>362</ele>
        <time>2007-08-22T10:43:02Z</time>
      </trkpt>
      <trkpt lat="43.82918" lon="5.79371">
        <ele>353</ele>
        <time>2007-08-22T10:43:02Z</time>
      </trkpt>
      <trkpt lat="43.82742" lon="5.79826">
        <ele>331</ele>
        <time>2007-08-22T10:43:02Z</time>
      </trkpt>
      <trkpt lat="43.82651" lon="5.80119">
        <ele>318</ele>
        <time>2007-08-22T10:43:02Z</time>
      </trkpt>
      <trkpt lat="43.82689" lon="5.80625">
        <ele>315</ele>
        <time>2007-08-22T10:43:02Z</time>
      </trkpt>
      <trkpt lat="43.82716" lon="5.80769">
        <ele>315</ele>
        <time>2007-08-22T10:43:02Z</time>
      </trkpt>
      <trkpt lat="43.82689" lon="5.80917">
        <ele>314</ele>
        <time>2007-08-22T10:43:02Z</time>
      </trkpt>
      <trkpt lat="43.8271" lon="5.81241">
        <ele>315</ele>
        <time>2007-08-22T10:43:02Z</time>
      </trkpt>
      <trkpt lat="43.82838" lon="5.81591">
        <ele>316</ele>
        <time>2007-08-22T10:43:02Z</time>
      </trkpt>
      <trkpt lat="43.82839" lon="5.81846">
        <ele>315</ele>
        <time>2007-08-22T10:43:02Z</time>
      </trkpt>
      <trkpt lat="43.82688" lon="5.82054">
        <ele>312</ele>
        <time>2007-08-22T10:43:02Z</time>
      </trkpt>
      <trkpt lat="43.82816" lon="5.82149">
        <ele>310</ele>
        <time>2007-08-22T10:43:02Z</time>
      </trkpt>
      <trkpt lat="43.82835" lon="5.8266">
        <ele>305</ele>
        <time>2007-08-22T10:43:02Z</time>
      </trkpt>
      <trkpt lat="43.83038" lon="5.82647">
        <ele>309</ele>
        <time>2007-08-22T10:43:02Z</time>
      </trkpt>
      <trkpt lat="43.83135" lon="5.8228">
        <ele>315</ele>
        <time>2007-08-22T10:43:02Z</time>
      </trkpt>
      <trkpt lat="43.83323" lon="5.82329">
        <ele>315</ele>
        <time>2007-08-22T10:43:02Z</time>
      </trkpt>
      <trkpt lat="43.83479" lon="5.82071">
        <ele>323</ele>
        <time>2007-08-22T10:43:02Z</time>
      </trkpt>
      <trkpt lat="43.83498" lon="5.82334">
        <ele>320</ele>
        <time>2007-08-22T10:43:02Z</time>
      </trkpt>
      <trkpt lat="43.83718" lon="5.8249">
        <ele>318</ele>
        <time>2007-08-22T10:43:02Z</time>
      </trkpt>
      <trkpt lat="43.84424" lon="5.82931">
        <ele>321</ele>
        <time>2007-08-22T10:43:02Z</time>
      </trkpt>
      <trkpt lat="43.84596" lon="5.83029">
        <ele>323</ele>
        <time>2007-08-22T10:43:02Z</time>
      </trkpt>
      <trkpt lat="43.84893" lon="5.83302">
        <ele>323</ele>
        <time>2007-08-22T10:43:02Z</time>
      </trkpt>
      <trkpt lat="43.85068" lon="5.83319">
        <ele>339</ele>
        <time>2007-08-22T10:43:02Z</time>
      </trkpt>
      <trkpt lat="43.85177" lon="5.83295">
        <ele>334</ele>
        <time>2007-08-22T10:43:02Z</time>
      </trkpt>
      <trkpt lat="43.85391" lon="5.82935">
        <ele>349</ele>
        <time>2007-08-22T10:43:02Z</time>
      </trkpt>
      <trkpt lat="43.85442" lon="5.83155">
        <ele>343</ele>
        <time>2007-08-22T10:43:02Z</time>
      </trkpt>
      <trkpt lat="43.85537" lon="5.83149">
        <ele>344</ele>
        <time>2007-08-22T10:43:02Z</time>
      </trkpt>
      <trkpt lat="43.86421" lon="5.84341">
        <ele>346</ele>
        <time>2007-08-22T10:43:02Z</time>
      </trkpt>
      <trkpt lat="43.86592" lon="5.84489">
        <ele>345</ele>
        <time>2007-08-22T10:43:02Z</time>
      </trkpt>
      <trkpt lat="43.86667" lon="5.84251">
        <ele>355</ele>
        <time>2007-08-22T10:43:02Z</time>
      </trkpt>
      <trkpt lat="43.86703" lon="5.8411">
        <ele>363</ele>
        <time>2007-08-22T10:43:02Z</time>
      </trkpt>
      <trkpt lat="43.86828" lon="5.84136">
        <ele>362</ele>
        <time>2007-08-22T10:43:02Z</time>
      </trkpt>
      <trkpt lat="43.86959" lon="5.84119">
        <ele>363</ele>
        <time>2007-08-22T10:43:02Z</time>
      </trkpt>
      <trkpt lat="43.87105" lon="5.84203">
        <ele>359</ele>
        <time>2007-08-22T10:43:02Z</time>
      </trkpt>
      <trkpt lat="43.87144" lon="5.83957">
        <ele>370</ele>
        <time>2007-08-22T10:43:02Z</time>
      </trkpt>
      <trkpt lat="43.87176" lon="5.83822">
        <ele>378</ele>
        <time>2007-08-22T10:43:02Z</time>
      </trkpt>
      <trkpt lat="43.87233" lon="5.8372">
        <ele>386</ele>
        <time>2007-08-22T10:43:02Z</time>
      </trkpt>
      <trkpt lat="43.87337" lon="5.83832">
        <ele>385</ele>
        <time>2007-08-22T10:43:02Z</time>
      </trkpt>
      <trkpt lat="43.87489" lon="5.84003">
        <ele>381</ele>
        <time>2007-08-22T10:43:02Z</time>
      </trkpt>
      <trkpt lat="43.87623" lon="5.84185">
        <ele>378</ele>
        <time>2007-08-22T10:43:02Z</time>
      </trkpt>
      <trkpt lat="43.8777" lon="5.84089">
        <ele>385</ele>
        <time>2007-08-22T10:43:02Z</time>
      </trkpt>
      <trkpt lat="43.87857" lon="5.84175">
        <ele>375</ele>
        <time>2007-08-22T10:43:02Z</time>
      </trkpt>
      <trkpt lat="43.87857" lon="5.84305">
        <ele>368</ele>
        <time>2007-08-22T10:43:02Z</time>
      </trkpt>
      <trkpt lat="43.879" lon="5.84383">
        <ele>364</ele>
        <time>2007-08-22T10:43:02Z</time>
      </trkpt>
      <trkpt lat="43.87996" lon="5.8432">
        <ele>376</ele>
        <time>2007-08-22T10:43:02Z</time>
      </trkpt>
      <trkpt lat="43.88307" lon="5.84439">
        <ele>361</ele>
        <time>2007-08-22T10:43:02Z</time>
      </trkpt>
      <trkpt lat="43.88477" lon="5.8435">
        <ele>358</ele>
        <time>2007-08-22T10:43:02Z</time>
      </trkpt>
      <trkpt lat="43.88784" lon="5.843">
        <ele>357</ele>
        <time>2007-08-22T10:43:02Z</time>
      </trkpt>
      <trkpt lat="43.89035" lon="5.8421">
        <ele>372</ele>
        <time>2007-08-22T10:43:02Z</time>
      </trkpt>
      <trkpt lat="43.89141" lon="5.84273">
        <ele>346</ele>
        <time>2007-08-22T10:43:02Z</time>
      </trkpt>
      <trkpt lat="43.8923" lon="5.84421">
        <ele>360</ele>
        <time>2007-08-22T10:43:02Z</time>
      </trkpt>
      <trkpt lat="43.88968" lon="5.84598">
        <ele>341</ele>
        <time>2007-08-22T10:43:02Z</time>
      </trkpt>
      <trkpt lat="43.88706" lon="5.8465">
        <ele>339</ele>
        <time>2007-08-22T10:43:02Z</time>
      </trkpt>
      <trkpt lat="43.88624" lon="5.84794">
        <ele>336</ele>
        <time>2007-08-22T10:43:02Z</time>
      </trkpt>
      <trkpt lat="43.88611" lon="5.8508">
        <ele>364</ele>
        <time>2007-08-22T10:43:02Z</time>
      </trkpt>
      <trkpt lat="43.88468" lon="5.85189">
        <ele>358</ele>
        <time>2007-08-22T10:43:02Z</time>
      </trkpt>
      <trkpt lat="43.88351" lon="5.85331">
        <ele>359</ele>
        <time>2007-08-22T10:43:02Z</time>
      </trkpt>
      <trkpt lat="43.88345" lon="5.85493">
        <ele>366</ele>
        <time>2007-08-22T10:43:02Z</time>
      </trkpt>
      <trkpt lat="43.88418" lon="5.85615">
        <ele>372</ele>
        <time>2007-08-22T10:43:02Z</time>
      </trkpt>
      <trkpt lat="43.88459" lon="5.85736">
        <ele>371</ele>
        <time>2007-08-22T10:43:02Z</time>
      </trkpt>
      <trkpt lat="43.88662" lon="5.86128">
        <ele>367</ele>
        <time>2007-08-22T10:43:02Z</time>
      </trkpt>
      <trkpt lat="43.89296" lon="5.86155">
        <ele>416</ele>
        <time>2007-08-22T10:43:02Z</time>
      </trkpt>
      <trkpt lat="43.89183" lon="5.86024">
        <ele>439</ele>
        <time>2007-08-22T10:43:02Z</time>
      </trkpt>
      <trkpt lat="43.89359" lon="5.86016">
        <ele>449</ele>
        <time>2007-08-22T10:43:02Z</time>
      </trkpt>
      <trkpt lat="43.89442" lon="5.86077">
        <ele>437</ele>
        <time>2007-08-22T10:43:02Z</time>
      </trkpt>
      <trkpt lat="43.89599" lon="5.85956">
        <ele>444</ele>
        <time>2007-08-22T10:43:02Z</time>
      </trkpt>
      <trkpt lat="43.89665" lon="5.85991">
        <ele>439</ele>
        <time>2007-08-22T10:43:02Z</time>
      </trkpt>
      <trkpt lat="43.89794" lon="5.86198">
        <ele>450</ele>
        <time>2007-08-22T10:43:02Z</time>
      </trkpt>
      <trkpt lat="43.8996" lon="5.86339">
        <ele>451</ele>
        <time>2007-08-22T10:43:02Z</time>
      </trkpt>
      <trkpt lat="43.90096" lon="5.86466">
        <ele>444</ele>
        <time>2007-08-22T10:43:02Z</time>
      </trkpt>
      <trkpt lat="43.90284" lon="5.86478">
        <ele>451</ele>
        <time>2007-08-22T10:43:02Z</time>
      </trkpt>
      <trkpt lat="43.90445" lon="5.86369">
        <ele>464</ele>
        <time>2007-08-22T10:43:02Z</time>
      </trkpt>
      <trkpt lat="43.90573" lon="5.86296">
        <ele>463</ele>
        <time>2007-08-22T10:43:02Z</time>
      </trkpt>
      <trkpt lat="43.90641" lon="5.86151">
        <ele>463</ele>
        <time>2007-08-22T10:43:02Z</time>
      </trkpt>
      <trkpt lat="43.90656" lon="5.85972">
        <ele>461</ele>
        <time>2007-08-22T10:43:02Z</time>
      </trkpt>
      <trkpt lat="43.90587" lon="5.8575">
        <ele>482</ele>
        <time>2007-08-22T10:43:02Z</time>
      </trkpt>
      <trkpt lat="43.90642" lon="5.85703">
        <ele>474</ele>
        <time>2007-08-22T10:43:02Z</time>
      </trkpt>
      <trkpt lat="43.90633" lon="5.85572">
        <ele>489</ele>
        <time>2007-08-22T10:43:02Z</time>
      </trkpt>
      <trkpt lat="43.90706" lon="5.85533">
        <ele>487</ele>
        <time>2007-08-22T10:43:02Z</time>
      </trkpt>
      <trkpt lat="43.90717" lon="5.85353">
        <ele>497</ele>
        <time>2007-08-22T10:43:02Z</time>
      </trkpt>
      <trkpt lat="43.9075" lon="5.85281">
        <ele>504</ele>
        <time>2007-08-22T10:43:02Z</time>
      </trkpt>
      <trkpt lat="43.90822" lon="5.85285">
        <ele>502</ele>
        <time>2007-08-22T10:43:02Z</time>
      </trkpt>
      <trkpt lat="43.90929" lon="5.8518">
        <ele>503</ele>
        <time>2007-08-22T10:43:02Z</time>
      </trkpt>
      <trkpt lat="43.91016" lon="5.85129">
        <ele>495</ele>
        <time>2007-08-22T10:43:02Z</time>
      </trkpt>
      <trkpt lat="43.91109" lon="5.85035">
        <ele>496</ele>
        <time>2007-08-22T10:43:02Z</time>
      </trkpt>
      <trkpt lat="43.91263" lon="5.8502">
        <ele>493</ele>
        <time>2007-08-22T10:43:02Z</time>
      </trkpt>
      <trkpt lat="43.91381" lon="5.84971">
        <ele>494</ele>
        <time>2007-08-22T10:43:02Z</time>
      </trkpt>
      <trkpt lat="43.91438" lon="5.84751">
        <ele>504</ele>
        <time>2007-08-22T10:43:02Z</time>
      </trkpt>
      <trkpt lat="43.91328" lon="5.84663">
        <ele>504</ele>
        <time>2007-08-22T10:43:02Z</time>
      </trkpt>
      <trkpt lat="43.91294" lon="5.84617">
        <ele>496</ele>
        <time>2007-08-22T10:43:02Z</time>
      </trkpt>
      <trkpt lat="43.91323" lon="5.8442">
        <ele>500</ele>
        <time>2007-08-22T10:43:02Z</time>
      </trkpt>
      <trkpt lat="43.91309" lon="5.84294">
        <ele>494</ele>
        <time>2007-08-22T10:43:02Z</time>
      </trkpt>
      <trkpt lat="43.91434" lon="5.84022">
        <ele>491</ele>
        <time>2007-08-22T10:43:02Z</time>
      </trkpt>
      <trkpt lat="43.91543" lon="5.84016">
        <ele>496</ele>
        <time>2007-08-22T10:43:02Z</time>
      </trkpt>
      <trkpt lat="43.9157" lon="5.83869">
        <ele>494</ele>
        <time>2007-08-22T10:43:02Z</time>
      </trkpt>
      <trkpt lat="43.91666" lon="5.83831">
        <ele>496</ele>
        <time>2007-08-22T10:43:02Z</time>
      </trkpt>
      <trkpt lat="43.91712" lon="5.8379">
        <ele>496</ele>
        <time>2007-08-22T10:43:02Z</time>
      </trkpt>
      <trkpt lat="43.91825" lon="5.83785">
        <ele>511</ele>
        <time>2007-08-22T10:43:02Z</time>
      </trkpt>
      <trkpt lat="43.91843" lon="5.83636">
        <ele>505</ele>
        <time>2007-08-22T10:43:02Z</time>
      </trkpt>
      <trkpt lat="43.91895" lon="5.83559">
        <ele>513</ele>
        <time>2007-08-22T10:43:02Z</time>
      </trkpt>
      <trkpt lat="43.91899" lon="5.83279">
        <ele>514</ele>
        <time>2007-08-22T10:43:02Z</time>
      </trkpt>
      <trkpt lat="43.91964" lon="5.83233">
        <ele>525</ele>
        <time>2007-08-22T10:43:02Z</time>
      </trkpt>
      <trkpt lat="43.92005" lon="5.83074">
        <ele>530</ele>
        <time>2007-08-22T10:43:02Z</time>
      </trkpt>
      <trkpt lat="43.92143" lon="5.82846">
        <ele>542</ele>
        <time>2007-08-22T10:43:02Z</time>
      </trkpt>
      <trkpt lat="43.9214" lon="5.82802">
        <ele>537</ele>
        <time>2007-08-22T10:43:02Z</time>
      </trkpt>
      <trkpt lat="43.92196" lon="5.82725">
        <ele>543</ele>
        <time>2007-08-22T10:43:02Z</time>
      </trkpt>
      <trkpt lat="43.9224" lon="5.82466">
        <ele>545</ele>
        <time>2007-08-22T10:43:02Z</time>
      </trkpt>
      <trkpt lat="43.92134" lon="5.82266">
        <ele>537</ele>
        <time>2007-08-22T10:43:02Z</time>
      </trkpt>
      <trkpt lat="43.92139" lon="5.82123">
        <ele>536</ele>
        <time>2007-08-22T10:43:02Z</time>
      </trkpt>
      <trkpt lat="43.9207" lon="5.82026">
        <ele>520</ele>
        <time>2007-08-22T10:43:02Z</time>
      </trkpt>
      <trkpt lat="43.92092" lon="5.81909">
        <ele>503</ele>
        <time>2007-08-22T10:43:02Z</time>
      </trkpt>
      <trkpt lat="43.92199" lon="5.81928">
        <ele>507</ele>
        <time>2007-08-22T10:43:02Z</time>
      </trkpt>
      <trkpt lat="43.92337" lon="5.81706">
        <ele>529</ele>
        <time>2007-08-22T10:43:02Z</time>
      </trkpt>
      <trkpt lat="43.92571" lon="5.81702">
        <ele>529</ele>
        <time>2007-08-22T10:43:02Z</time>
      </trkpt>
      <trkpt lat="43.92823" lon="5.81698">
        <ele>518</ele>
        <time>2007-08-22T10:43:02Z</time>
      </trkpt>
      <trkpt lat="43.92993" lon="5.8174">
        <ele>500</ele>
        <time>2007-08-22T10:43:02Z</time>
      </trkpt>
      <trkpt lat="43.93098" lon="5.81821">
        <ele>487</ele>
        <time>2007-08-22T10:43:02Z</time>
      </trkpt>
      <trkpt lat="43.93064" lon="5.8162">
        <ele>485</ele>
        <time>2007-08-22T10:43:02Z</time>
      </trkpt>
      <trkpt lat="43.93072" lon="5.81365">
        <ele>489</ele>
        <time>2007-08-22T10:43:02Z</time>
      </trkpt>
      <trkpt lat="43.93306" lon="5.808">
        <ele>488</ele>
        <time>2007-08-22T10:43:02Z</time>
      </trkpt>
      <trkpt lat="43.93524" lon="5.80309">
        <ele>487</ele>
        <time>2007-08-22T10:43:02Z</time>
      </trkpt>
      <trkpt lat="43.93746" lon="5.80142">
        <ele>486</ele>
        <time>2007-08-22T10:43:02Z</time>
      </trkpt>
      <trkpt lat="43.93901" lon="5.79766">
        <ele>500</ele>
        <time>2007-08-22T10:43:02Z</time>
      </trkpt>
      <trkpt lat="43.94284" lon="5.79478">
        <ele>517</ele>
        <time>2007-08-22T10:43:02Z</time>
      </trkpt>
      <trkpt lat="43.94357" lon="5.7932">
        <ele>521</ele>
        <time>2007-08-22T10:43:02Z</time>
      </trkpt>
      <trkpt lat="43.94542" lon="5.79145">
        <ele>528</ele>
        <time>2007-08-22T10:43:02Z</time>
      </trkpt>
      <trkpt lat="43.94755" lon="5.79108">
        <ele>536</ele>
        <time>2007-08-22T10:43:02Z</time>
      </trkpt>
      <trkpt lat="43.94896" lon="5.79042">
        <ele>538</ele>
        <time>2007-08-22T10:43:02Z</time>
      </trkpt>
      <trkpt lat="43.95021" lon="5.79074">
        <ele>551</ele>
        <time>2007-08-22T10:43:02Z</time>
      </trkpt>
      <trkpt lat="43.95209" lon="5.78974">
        <ele>555</ele>
        <time>2007-08-22T10:43:02Z</time>
      </trkpt>
      <trkpt lat="43.95355" lon="5.78777">
        <ele>556</ele>
        <time>2007-08-22T10:43:02Z</time>
      </trkpt>
      <trkpt lat="43.95481" lon="5.78498">
        <ele>565</ele>
        <time>2007-08-22T10:43:02Z</time>
      </trkpt>
      <trkpt lat="43.95796" lon="5.78343">
        <ele>549</ele>
        <time>2007-08-22T10:43:02Z</time>
      </trkpt>
      <trkpt lat="43.95946" lon="5.78003">
        <ele>542</ele>
        <time>2007-08-22T10:43:02Z</time>
      </trkpt>
      <trkpt lat="43.95811" lon="5.77883">
        <ele>532</ele>
        <time>2007-08-22T10:43:02Z</time>
      </trkpt>
      <trkpt lat="43.9573" lon="5.77872">
        <ele>529</ele>
        <time>2007-08-22T10:43:02Z</time>
      </trkpt>
      <trkpt lat="43.95465" lon="5.77999">
        <ele>518</ele>
        <time>2007-08-22T10:43:02Z</time>
      </trkpt>
      <trkpt lat="43.9513" lon="5.77929">
        <ele>490</ele>
        <time>2007-08-22T10:43:02Z</time>
      </trkpt>
      <trkpt lat="43.95035" lon="5.77805">
        <ele>479</ele>
        <time>2007-08-22T10:43:02Z</time>
      </trkpt>
      <trkpt lat="43.94782" lon="5.77833">
        <ele>457</ele>
        <time>2007-08-22T10:43:02Z</time>
      </trkpt>
      <trkpt lat="43.94668" lon="5.77888">
        <ele>452</ele>
        <time>2007-08-22T10:43:02Z</time>
      </trkpt>
      <trkpt lat="43.94265" lon="5.78524">
        <ele>446</ele>
        <time>2007-08-22T10:43:02Z</time>
      </trkpt>
      <trkpt lat="43.94196" lon="5.78582">
        <ele>449</ele>
        <time>2007-08-22T10:43:02Z</time>
      </trkpt>
      <trkpt lat="43.94158" lon="5.78642">
        <ele>448</ele>
        <time>2007-08-22T10:43:02Z</time>
      </trkpt>
      <trkpt lat="43.94053" lon="5.78679">
        <ele>444</ele>
        <time>2007-08-22T10:43:02Z</time>
      </trkpt>
      <trkpt lat="43.93861" lon="5.78917">
        <ele>439</ele>
        <time>2007-08-22T10:43:02Z</time>
      </trkpt>
      <trkpt lat="43.93719" lon="5.79126">
        <ele>431</ele>
        <time>2007-08-22T10:43:02Z</time>
      </trkpt>
      <trkpt lat="43.93435" lon="5.79295">
        <ele>435</ele>
        <time>2007-08-22T10:43:02Z</time>
      </trkpt>
      <trkpt lat="43.93037" lon="5.79209">
        <ele>418</ele>
        <time>2007-08-22T10:43:02Z</time>
      </trkpt>
      <trkpt lat="43.9289" lon="5.79163">
        <ele>430</ele>
        <time>2007-08-22T10:43:02Z</time>
      </trkpt>
      <trkpt lat="43.92767" lon="5.79093">
        <ele>419</ele>
        <time>2007-08-22T10:43:02Z</time>
      </trkpt>
      <trkpt lat="43.92628" lon="5.79072">
        <ele>420</ele>
        <time>2007-08-22T10:43:02Z</time>
      </trkpt>
      <trkpt lat="43.92427" lon="5.79029">
        <ele>434</ele>
        <time>2007-08-22T10:43:02Z</time>
      </trkpt>
      <trkpt lat="43.92259" lon="5.78782">
        <ele>422</ele>
        <time>2007-08-22T10:43:02Z</time>
      </trkpt>
      <trkpt lat="43.92121" lon="5.7858">
        <ele>414</ele>
        <time>2007-08-22T10:43:02Z</time>
      </trkpt>
      <trkpt lat="43.91938" lon="5.7842">
        <ele>404</ele>
        <time>2007-08-22T10:43:02Z</time>
      </trkpt>
      <trkpt lat="43.91807" lon="5.78412">
        <ele>403</ele>
        <time>2007-08-22T10:43:02Z</time>
      </trkpt>
      <trkpt lat="43.91595" lon="5.78306">
        <ele>397</ele>
        <time>2007-08-22T10:43:02Z</time>
      </trkpt>
      <trkpt lat="43.91415" lon="5.78313">
        <ele>396</ele>
        <time>2007-08-22T10:43:02Z</time>
      </trkpt>
      <trkpt lat="43.9131" lon="5.78344">
        <ele>392</ele>
        <time>2007-08-22T10:43:02Z</time>
      </trkpt>
      <trkpt lat="43.91128" lon="5.78539">
        <ele>387</ele>
        <time>2007-08-22T10:43:02Z</time>
      </trkpt>
      <trkpt lat="43.91047" lon="5.78546">
        <ele>385</ele>
        <time>2007-08-22T10:43:02Z</time>
      </trkpt>
      <trkpt lat="43.90948" lon="5.7841">
        <ele>385</ele>
        <time>2007-08-22T10:43:02Z</time>
      </trkpt>
      <trkpt lat="43.90858" lon="5.78398">
        <ele>383</ele>
        <time>2007-08-22T10:43:02Z</time>
      </trkpt>
      <trkpt lat="43.90721" lon="5.78483">
        <ele>382</ele>
        <time>2007-08-22T10:43:02Z</time>
      </trkpt>
      <trkpt lat="43.90602" lon="5.78532">
        <ele>381</ele>
        <time>2007-08-22T10:43:02Z</time>
      </trkpt>
      <trkpt lat="43.90594" lon="5.78214">
        <ele>385</ele>
        <time>2007-08-22T10:43:02Z</time>
      </trkpt>
      <trkpt lat="43.9053" lon="5.77986">
        <ele>396</ele>
        <time>2007-08-22T10:43:02Z</time>
      </trkpt>
      <trkpt lat="43.9044" lon="5.777">
        <ele>393</ele>
        <time>2007-08-22T10:43:02Z</time>
      </trkpt>
      <trkpt lat="43.90335" lon="5.77445">
        <ele>396</ele>
        <time>2007-08-22T10:43:02Z</time>
      </trkpt>
      <trkpt lat="43.9028" lon="5.7733">
        <ele>398</ele>
        <time>2007-08-22T10:43:02Z</time>
      </trkpt>
      <trkpt lat="43.9016" lon="5.77285">
        <ele>397</ele>
        <time>2007-08-22T10:43:02Z</time>
      </trkpt>
      <trkpt lat="43.90004" lon="5.77239">
        <ele>391</ele>
        <time>2007-08-22T10:43:02Z</time>
      </trkpt>
      <trkpt lat="43.89829" lon="5.77222">
        <ele>389</ele>
        <time>2007-08-22T10:43:02Z</time>
      </trkpt>
      <trkpt lat="43.89828" lon="5.77116">
        <ele>393</ele>
        <time>2007-08-22T10:43:02Z</time>
      </trkpt>
      <trkpt lat="43.8988" lon="5.77044">
        <ele>395</ele>
        <time>2007-08-22T10:43:02Z</time>
      </trkpt>
      <trkpt lat="43.89878" lon="5.76957">
        <ele>397</ele>
        <time>2007-08-22T10:43:02Z</time>
      </trkpt>
      <trkpt lat="43.90004" lon="5.76828">
        <ele>401</ele>
        <time>2007-08-22T10:43:02Z</time>
      </trkpt>
      <trkpt lat="43.90127" lon="5.76474">
        <ele>408</ele>
        <time>2007-08-22T10:43:02Z</time>
      </trkpt>
      <trkpt lat="43.90129" lon="5.76138">
        <ele>416</ele>
        <time>2007-08-22T10:43:02Z</time>
      </trkpt>
      <trkpt lat="43.9028" lon="5.75631">
        <ele>433</ele>
        <time>2007-08-22T10:43:02Z</time>
      </trkpt>
      <trkpt lat="43.90302" lon="5.75352">
        <ele>438</ele>
        <time>2007-08-22T10:43:02Z</time>
      </trkpt>
      <trkpt lat="43.90413" lon="5.74824">
        <ele>451</ele>
        <time>2007-08-22T10:43:02Z</time>
      </trkpt>
      <trkpt lat="43.90417" lon="5.7442">
        <ele>461</ele>
        <time>2007-08-22T10:43:02Z</time>
      </trkpt>
      <trkpt lat="43.90232" lon="5.74278">
        <ele>469</ele>
        <time>2007-08-22T10:43:02Z</time>
      </trkpt>
      <trkpt lat="43.90205" lon="5.73573">
        <ele>496</ele>
        <time>2007-08-22T10:43:02Z</time>
      </trkpt>
      <trkpt lat="43.90314" lon="5.73244">
        <ele>505</ele>
        <time>2007-08-22T10:43:02Z</time>
      </trkpt>
      <trkpt lat="43.90317" lon="5.73144">
        <ele>496</ele>
        <time>2007-08-22T10:43:02Z</time>
      </trkpt>
      <trkpt lat="43.90204" lon="5.72889">
        <ele>513</ele>
        <time>2007-08-22T10:43:02Z</time>
      </trkpt>
      <trkpt lat="43.90156" lon="5.72537">
        <ele>530</ele>
        <time>2007-08-22T10:43:02Z</time>
      </trkpt>
      <trkpt lat="43.90314" lon="5.72379">
        <ele>512</ele>
        <time>2007-08-22T10:43:02Z</time>
      </trkpt>
      <trkpt lat="43.90439" lon="5.72131">
        <ele>519</ele>
        <time>2007-08-22T10:43:02Z</time>
      </trkpt>
      <trkpt lat="43.90782" lon="5.71822">
        <ele>548</ele>
        <time>2007-08-22T10:43:02Z</time>
      </trkpt>
      <trkpt lat="43.90851" lon="5.71608">
        <ele>556</ele>
        <time>2007-08-22T10:43:02Z</time>
      </trkpt>
      <trkpt lat="43.90966" lon="5.71521">
        <ele>567</ele>
        <time>2007-08-22T10:43:02Z</time>
      </trkpt>
      <trkpt lat="43.91037" lon="5.71264">
        <ele>568</ele>
        <time>2007-08-22T10:43:02Z</time>
      </trkpt>
      <trkpt lat="43.91169" lon="5.70949">
        <ele>575</ele>
        <time>2007-08-22T10:43:02Z</time>
      </trkpt>
      <trkpt lat="43.91564" lon="5.70667">
        <ele>600</ele>
        <time>2007-08-22T10:43:02Z</time>
      </trkpt>
      <trkpt lat="43.91809" lon="5.70022">
        <ele>630</ele>
        <time>2007-08-22T10:43:02Z</time>
      </trkpt>
      <trkpt lat="43.91944" lon="5.70042">
        <ele>636</ele>
        <time>2007-08-22T10:43:02Z</time>
      </trkpt>
      <trkpt lat="43.92026" lon="5.69991">
        <ele>640</ele>
        <time>2007-08-22T10:43:02Z</time>
      </trkpt>
      <trkpt lat="43.92083" lon="5.69889">
        <ele>637</ele>
        <time>2007-08-22T10:43:02Z</time>
      </trkpt>
      <trkpt lat="43.92203" lon="5.69802">
        <ele>622</ele>
        <time>2007-08-22T10:43:02Z</time>
      </trkpt>
      <trkpt lat="43.92318" lon="5.69573">
        <ele>597</ele>
        <time>2007-08-22T10:43:02Z</time>
      </trkpt>
      <trkpt lat="43.92428" lon="5.69498">
        <ele>591</ele>
        <time>2007-08-22T10:43:02Z</time>
      </trkpt>
      <trkpt lat="43.92582" lon="5.69464">
        <ele>590</ele>
        <time>2007-08-22T10:43:02Z</time>
      </trkpt>
      <trkpt lat="43.92791" lon="5.69401">
        <ele>568</ele>
        <time>2007-08-22T10:43:02Z</time>
      </trkpt>
      <trkpt lat="43.92703" lon="5.69346">
        <ele>554</ele>
        <time>2007-08-22T10:43:02Z</time>
      </trkpt>
      <trkpt lat="43.92275" lon="5.69352">
        <ele>536</ele>
        <time>2007-08-22T10:43:02Z</time>
      </trkpt>
      <trkpt lat="43.92139" lon="5.69257">
        <ele>525</ele>
        <time>2007-08-22T10:43:02Z</time>
      </trkpt>
      <trkpt lat="43.92281" lon="5.69309">
        <ele>525</ele>
        <time>2007-08-22T10:43:02Z</time>
      </trkpt>
      <trkpt lat="43.9247" lon="5.69183">
        <ele>500</ele>
        <time>2007-08-22T10:43:02Z</time>
      </trkpt>
      <trkpt lat="43.92602" lon="5.69116">
        <ele>498</ele>
        <time>2007-08-22T10:43:02Z</time>
      </trkpt>
      <trkpt lat="43.92522" lon="5.68782">
        <ele>504</ele>
        <time>2007-08-22T10:43:02Z</time>
      </trkpt>
      <trkpt lat="43.92508" lon="5.68663">
        <ele>501</ele>
        <time>2007-08-22T10:43:02Z</time>
      </trkpt>
      <trkpt lat="43.92593" lon="5.67964">
        <ele>519</ele>
        <time>2007-08-22T10:43:02Z</time>
      </trkpt>
      <trkpt lat="43.9265" lon="5.67557">
        <ele>539</ele>
        <time>2007-08-22T10:43:02Z</time>
      </trkpt>
      <trkpt lat="43.92704" lon="5.67398">
        <ele>539</ele>
        <time>2007-08-22T10:43:02Z</time>
      </trkpt>
      <trkpt lat="43.92757" lon="5.66866">
        <ele>543</ele>
        <time>2007-08-22T10:43:02Z</time>
      </trkpt>
      <trkpt lat="43.92735" lon="5.66703">
        <ele>553</ele>
        <time>2007-08-22T10:43:02Z</time>
      </trkpt>
      <trkpt lat="43.92789" lon="5.66401">
        <ele>566</ele>
        <time>2007-08-22T10:43:02Z</time>
      </trkpt>
      <trkpt lat="43.92784" lon="5.6627">
        <ele>582</ele>
        <time>2007-08-22T10:43:02Z</time>
      </trkpt>
      <trkpt lat="43.92839" lon="5.66093">
        <ele>587</ele>
        <time>2007-08-22T10:43:02Z</time>
      </trkpt>
      <trkpt lat="43.92961" lon="5.65932">
        <ele>587</ele>
        <time>2007-08-22T10:43:02Z</time>
      </trkpt>
      <trkpt lat="43.92869" lon="5.65839">
        <ele>605</ele>
        <time>2007-08-22T10:43:02Z</time>
      </trkpt>
      <trkpt lat="43.93019" lon="5.65792">
        <ele>604</ele>
        <time>2007-08-22T10:43:02Z</time>
      </trkpt>
      <trkpt lat="43.93037" lon="5.65662">
        <ele>618</ele>
        <time>2007-08-22T10:43:02Z</time>
      </trkpt>
      <trkpt lat="43.92965" lon="5.65639">
        <ele>634</ele>
        <time>2007-08-22T10:43:02Z</time>
      </trkpt>
      <trkpt lat="43.92805" lon="5.65742">
        <ele>633</ele>
        <time>2007-08-22T10:43:02Z</time>
      </trkpt>
      <trkpt lat="43.92723" lon="5.65457">
        <ele>646</ele>
        <time>2007-08-22T10:43:02Z</time>
      </trkpt>
      <trkpt lat="43.92663" lon="5.6508">
        <ele>682</ele>
        <time>2007-08-22T10:43:02Z</time>
      </trkpt>
      <trkpt lat="43.92597" lon="5.6502">
        <ele>690</ele>
        <time>2007-08-22T10:43:02Z</time>
      </trkpt>
      <trkpt lat="43.92488" lon="5.65051">
        <ele>687</ele>
        <time>2007-08-22T10:43:02Z</time>
      </trkpt>
      <trkpt lat="43.92397" lon="5.64809">
        <ele>698</ele>
        <time>2007-08-22T10:43:02Z</time>
      </trkpt>
      <trkpt lat="43.92331" lon="5.646">
        <ele>707</ele>
        <time>2007-08-22T10:43:02Z</time>
      </trkpt>
      <trkpt lat="43.92241" lon="5.64607">
        <ele>703</ele>
        <time>2007-08-22T10:43:02Z</time>
      </trkpt>
      <trkpt lat="43.92133" lon="5.6462">
        <ele>702</ele>
        <time>2007-08-22T10:43:02Z</time>
      </trkpt>
      <trkpt lat="43.92065" lon="5.64908">
        <ele>733</ele>
        <time>2007-08-22T10:43:02Z</time>
      </trkpt>
      <trkpt lat="43.92139" lon="5.64987">
        <ele>733</ele>
        <time>2007-08-22T10:43:02Z</time>
      </trkpt>
      <trkpt lat="43.92098" lon="5.65327">
        <ele>758</ele>
        <time>2007-08-22T10:43:02Z</time>
      </trkpt>
      <trkpt lat="43.92031" lon="5.65448">
        <ele>778</ele>
        <time>2007-08-22T10:43:02Z</time>
      </trkpt>
      <trkpt lat="43.91997" lon="5.65664">
        <ele>769</ele>
        <time>2007-08-22T10:43:02Z</time>
      </trkpt>
      <trkpt lat="43.91939" lon="5.65797">
        <ele>779</ele>
        <time>2007-08-22T10:43:02Z</time>
      </trkpt>
      <trkpt lat="43.91793" lon="5.65876">
        <ele>785</ele>
        <time>2007-08-22T10:43:02Z</time>
      </trkpt>
      <trkpt lat="43.91584" lon="5.65776">
        <ele>781</ele>
        <time>2007-08-22T10:43:02Z</time>
      </trkpt>
      <trkpt lat="43.91452" lon="5.65706">
        <ele>779</ele>
        <time>2007-08-22T10:43:02Z</time>
      </trkpt>
      <trkpt lat="43.91254" lon="5.65689">
        <ele>773</ele>
        <time>2007-08-22T10:43:02Z</time>
      </trkpt>
      <trkpt lat="43.91052" lon="5.65546">
        <ele>762</ele>
        <time>2007-08-22T10:43:02Z</time>
      </trkpt>
      <trkpt lat="43.91208" lon="5.65281">
        <ele>771</ele>
        <time>2007-08-22T10:43:02Z</time>
      </trkpt>
      <trkpt lat="43.90949" lon="5.65353">
        <ele>767</ele>
        <time>2007-08-22T10:43:02Z</time>
      </trkpt>
      <trkpt lat="43.90669" lon="5.65549">
        <ele>752</ele>
        <time>2007-08-22T10:43:02Z</time>
      </trkpt>
      <trkpt lat="43.90527" lon="5.65503">
        <ele>746</ele>
        <time>2007-08-22T10:43:02Z</time>
      </trkpt>
      <trkpt lat="43.90373" lon="5.65513">
        <ele>740</ele>
        <time>2007-08-22T10:43:02Z</time>
      </trkpt>
      <trkpt lat="43.90129" lon="5.65698">
        <ele>720</ele>
        <time>2007-08-22T10:43:02Z</time>
      </trkpt>
      <trkpt lat="43.90029" lon="5.65723">
        <ele>713</ele>
        <time>2007-08-22T10:43:02Z</time>
      </trkpt>
      <trkpt lat="43.89915" lon="5.65654">
        <ele>707</ele>
        <time>2007-08-22T10:43:02Z</time>
      </trkpt>
      <trkpt lat="43.89859" lon="5.6557">
        <ele>704</ele>
        <time>2007-08-22T10:43:02Z</time>
      </trkpt>
      <trkpt lat="43.89825" lon="5.65356">
        <ele>704</ele>
        <time>2007-08-22T10:43:02Z</time>
      </trkpt>
      <trkpt lat="43.89672" lon="5.65478">
        <ele>690</ele>
        <time>2007-08-22T10:43:02Z</time>
      </trkpt>
      <trkpt lat="43.89587" lon="5.65485">
        <ele>684</ele>
        <time>2007-08-22T10:43:02Z</time>
      </trkpt>
      <trkpt lat="43.89461" lon="5.65347">
        <ele>684</ele>
        <time>2007-08-22T10:43:02Z</time>
      </trkpt>
      <trkpt lat="43.89415" lon="5.65525">
        <ele>675</ele>
        <time>2007-08-22T10:43:02Z</time>
      </trkpt>
      <trkpt lat="43.89238" lon="5.65857">
        <ele>657</ele>
        <time>2007-08-22T10:43:02Z</time>
      </trkpt>
      <trkpt lat="43.8911" lon="5.6593">
        <ele>650</ele>
        <time>2007-08-22T10:43:02Z</time>
      </trkpt>
      <trkpt lat="43.88797" lon="5.66435">
        <ele>618</ele>
        <time>2007-08-22T10:43:02Z</time>
      </trkpt>
      <trkpt lat="43.88603" lon="5.66467">
        <ele>605</ele>
        <time>2007-08-22T10:43:02Z</time>
      </trkpt>
      <trkpt lat="43.88449" lon="5.66352">
        <ele>596</ele>
        <time>2007-08-22T10:43:02Z</time>
      </trkpt>
      <trkpt lat="43.88343" lon="5.66147">
        <ele>583</ele>
        <time>2007-08-22T10:43:02Z</time>
      </trkpt>
      <trkpt lat="43.88278" lon="5.66062">
        <ele>575</ele>
        <time>2007-08-22T10:43:02Z</time>
      </trkpt>
      <trkpt lat="43.88278" lon="5.659">
        <ele>581</ele>
        <time>2007-08-22T10:43:02Z</time>
      </trkpt>
      <trkpt lat="43.88174" lon="5.65944">
        <ele>570</ele>
        <time>2007-08-22T10:43:02Z</time>
      </trkpt>
      <trkpt lat="43.88109" lon="5.65853">
        <ele>567</ele>
        <time>2007-08-22T10:43:02Z</time>
      </trkpt>
      <trkpt lat="43.87889" lon="5.6584">
        <ele>548</ele>
        <time>2007-08-22T10:43:02Z</time>
      </trkpt>
      <trkpt lat="43.87991" lon="5.66045">
        <ele>549</ele>
        <time>2007-08-22T10:43:02Z</time>
      </trkpt>
      <trkpt lat="43.88043" lon="5.66098">
        <ele>548</ele>
        <time>2007-08-22T10:43:02Z</time>
      </trkpt>
      <trkpt lat="43.87988" lon="5.66269">
        <ele>544</ele>
        <time>2007-08-22T10:43:02Z</time>
      </trkpt>
      <trkpt lat="43.87972" lon="5.66511">
        <ele>545</ele>
        <time>2007-08-22T10:43:02Z</time>
      </trkpt>
      <trkpt lat="43.87866" lon="5.66598">
        <ele>541</ele>
        <time>2007-08-22T10:43:02Z</time>
      </trkpt>
      <trkpt lat="43.87789" lon="5.66612">
        <ele>549</ele>
        <time>2007-08-22T10:43:02Z</time>
      </trkpt>
      <trkpt lat="43.87612" lon="5.66813">
        <ele>533</ele>
        <time>2007-08-22T10:43:02Z</time>
      </trkpt>
      <trkpt lat="43.87573" lon="5.66885">
        <ele>529</ele>
        <time>2007-08-22T10:43:02Z</time>
      </trkpt>
      <trkpt lat="43.87492" lon="5.66899">
        <ele>525</ele>
        <time>2007-08-22T10:43:02Z</time>
      </trkpt>
      <trkpt lat="43.875" lon="5.67086">
        <ele>528</ele>
        <time>2007-08-22T10:43:02Z</time>
      </trkpt>
      <trkpt lat="43.87343" lon="5.67201">
        <ele>517</ele>
        <time>2007-08-22T10:43:02Z</time>
      </trkpt>
      <trkpt lat="43.87236" lon="5.6732">
        <ele>511</ele>
        <time>2007-08-22T10:43:02Z</time>
      </trkpt>
      <trkpt lat="43.87009" lon="5.67399">
        <ele>499</ele>
        <time>2007-08-22T10:43:02Z</time>
      </trkpt>
      <trkpt lat="43.86734" lon="5.67545">
        <ele>496</ele>
        <time>2007-08-22T10:43:02Z</time>
      </trkpt>
      <trkpt lat="43.86572" lon="5.67716">
        <ele>494</ele>
        <time>2007-08-22T10:43:02Z</time>
      </trkpt>
      <trkpt lat="43.86446" lon="5.67864">
        <ele>491</ele>
        <time>2007-08-22T10:43:02Z</time>
      </trkpt>
      <trkpt lat="43.86309" lon="5.6821">
        <ele>491</ele>
        <time>2007-08-22T10:43:02Z</time>
      </trkpt>
      <trkpt lat="43.86188" lon="5.6834">
        <ele>489</ele>
        <time>2007-08-22T10:43:02Z</time>
      </trkpt>
      <trkpt lat="43.85847" lon="5.69184">
        <ele>533</ele>
        <time>2007-08-22T10:43:02Z</time>
      </trkpt>
      <trkpt lat="43.85868" lon="5.69366">
        <ele>532</ele>
        <time>2007-08-22T10:43:02Z</time>
      </trkpt>
      <trkpt lat="43.85833" lon="5.69345">
        <ele>539</ele>
        <time>2007-08-22T10:43:02Z</time>
      </trkpt>
      <trkpt lat="43.85832" lon="5.69531">
        <ele>553</ele>
        <time>2007-08-22T10:43:02Z</time>
      </trkpt>
      <trkpt lat="43.8585" lon="5.69682">
        <ele>565</ele>
        <time>2007-08-22T10:43:02Z</time>
      </trkpt>
      <trkpt lat="43.85947" lon="5.70029">
        <ele>566</ele>
        <time>2007-08-22T10:43:02Z</time>
      </trkpt>
      <trkpt lat="43.85807" lon="5.7004">
        <ele>593</ele>
        <time>2007-08-22T10:43:02Z</time>
      </trkpt>
      <trkpt lat="43.85779" lon="5.70218">
        <ele>584</ele>
        <time>2007-08-22T10:43:02Z</time>
      </trkpt>
      <trkpt lat="43.8553" lon="5.7057">
        <ele>594</ele>
        <time>2007-08-22T10:43:02Z</time>
      </trkpt>
      <trkpt lat="43.85394" lon="5.70581">
        <ele>606</ele>
        <time>2007-08-22T10:43:02Z</time>
      </trkpt>
      <trkpt lat="43.85394" lon="5.70581">
        <ele>606</ele>
        <time>2007-08-22T10:43:02Z</time>
      </trkpt>
      <trkpt lat="43.85474" lon="5.70785">
        <ele>620</ele>
        <time>2007-08-22T10:43:02Z</time>
      </trkpt>
      <trkpt lat="43.85554" lon="5.70808">
        <ele>618</ele>
        <time>2007-08-22T10:43:02Z</time>
      </trkpt>
      <trkpt lat="43.85579" lon="5.70866">
        <ele>625</ele>
        <time>2007-08-22T10:43:02Z</time>
      </trkpt>
      <trkpt lat="43.85739" lon="5.70937">
        <ele>632</ele>
        <time>2007-08-22T10:43:02Z</time>
      </trkpt>
      <trkpt lat="43.85759" lon="5.7115">
        <ele>648</ele>
        <time>2007-08-22T10:43:02Z</time>
      </trkpt>
      <trkpt lat="43.85904" lon="5.7127">
        <ele>653</ele>
        <time>2007-08-22T10:43:02Z</time>
      </trkpt>
      <trkpt lat="43.85798" lon="5.71345">
        <ele>674</ele>
        <time>2007-08-22T10:43:02Z</time>
      </trkpt>
      <trkpt lat="43.85727" lon="5.71608">
        <ele>665</ele>
        <time>2007-08-22T10:43:02Z</time>
      </trkpt>
      <trkpt lat="43.85542" lon="5.71914">
        <ele>658</ele>
        <time>2007-08-22T10:43:02Z</time>
      </trkpt>
      <trkpt lat="43.85543" lon="5.72032">
        <ele>644</ele>
        <time>2007-08-22T10:43:02Z</time>
      </trkpt>
      <trkpt lat="43.85328" lon="5.72293">
        <ele>626</ele>
        <time>2007-08-22T10:43:02Z</time>
      </trkpt>
      <trkpt lat="43.85161" lon="5.72283">
        <ele>613</ele>
        <time>2007-08-22T10:43:02Z</time>
      </trkpt>
      <trkpt lat="43.85193" lon="5.72422">
        <ele>604</ele>
        <time>2007-08-22T10:43:02Z</time>
      </trkpt>
      <trkpt lat="43.85291" lon="5.72465">
        <ele>607</ele>
        <time>2007-08-22T10:43:02Z</time>
      </trkpt>
      <trkpt lat="43.85283" lon="5.7257">
        <ele>596</ele>
        <time>2007-08-22T10:43:02Z</time>
      </trkpt>
      <trkpt lat="43.85211" lon="5.72566">
        <ele>592</ele>
        <time>2007-08-22T10:43:02Z</time>
      </trkpt>
      <trkpt lat="43.85278" lon="5.72744">
        <ele>585</ele>
        <time>2007-08-22T10:43:02Z</time>
      </trkpt>
      <trkpt lat="43.85117" lon="5.73002">
        <ele>584</ele>
        <time>2007-08-22T10:43:02Z</time>
      </trkpt>
      <trkpt lat="43.8499" lon="5.73299">
        <ele>589</ele>
        <time>2007-08-22T10:43:02Z</time>
      </trkpt>
      <trkpt lat="43.84776" lon="5.73547">
        <ele>594</ele>
        <time>2007-08-22T10:43:02Z</time>
      </trkpt>
      <trkpt lat="43.84684" lon="5.73728">
        <ele>579</ele>
        <time>2007-08-22T10:43:02Z</time>
      </trkpt>
      <trkpt lat="43.84594" lon="5.73741">
        <ele>576</ele>
        <time>2007-08-22T10:43:02Z</time>
      </trkpt>
      <trkpt lat="43.84514" lon="5.73861">
        <ele>562</ele>
        <time>2007-08-22T10:43:02Z</time>
      </trkpt>
      <trkpt lat="43.84396" lon="5.73879">
        <ele>543</ele>
        <time>2007-08-22T10:43:02Z</time>
      </trkpt>
      <trkpt lat="43.84295" lon="5.7381">
        <ele>534</ele>
        <time>2007-08-22T10:43:02Z</time>
      </trkpt>
      <trkpt lat="43.84069" lon="5.7412">
        <ele>526</ele>
        <time>2007-08-22T10:43:02Z</time>
      </trkpt>
      <trkpt lat="43.8402" lon="5.7426">
        <ele>537</ele>
        <time>2007-08-22T10:43:02Z</time>
      </trkpt>
      <trkpt lat="43.84081" lon="5.74463">
        <ele>524</ele>
        <time>2007-08-22T10:43:02Z</time>
      </trkpt>
      <trkpt lat="43.84143" lon="5.74628">
        <ele>516</ele>
        <time>2007-08-22T10:43:02Z</time>
      </trkpt>
      <trkpt lat="43.84143" lon="5.74777">
        <ele>522</ele>
        <time>2007-08-22T10:43:02Z</time>
      </trkpt>
      <trkpt lat="43.84173" lon="5.74978">
        <ele>514</ele>
        <time>2007-08-22T10:43:02Z</time>
      </trkpt>
      <trkpt lat="43.84125" lon="5.75224">
        <ele>502</ele>
        <time>2007-08-22T10:43:02Z</time>
      </trkpt>
      <trkpt lat="43.83927" lon="5.75069">
        <ele>491</ele>
        <time>2007-08-22T10:43:02Z</time>
      </trkpt>
      <trkpt lat="43.83676" lon="5.75184">
        <ele>466</ele>
        <time>2007-08-22T10:43:02Z</time>
      </trkpt>
      <trkpt lat="43.83406" lon="5.7505">
        <ele>457</ele>
        <time>2007-08-22T10:43:02Z</time>
      </trkpt>
      <trkpt lat="43.8325" lon="5.75413">
        <ele>427</ele>
        <time>2007-08-22T10:43:02Z</time>
      </trkpt>
      <trkpt lat="43.83252" lon="5.75631">
        <ele>417</ele>
        <time>2007-08-22T10:43:02Z</time>
      </trkpt>
      <trkpt lat="43.83297" lon="5.75945">
        <ele>408</ele>
        <time>2007-08-22T10:43:02Z</time>
      </trkpt>
      <trkpt lat="43.83255" lon="5.7611">
        <ele>399</ele>
        <time>2007-08-22T10:43:02Z</time>
      </trkpt>
      <trkpt lat="43.83269" lon="5.76521">
        <ele>385</ele>
        <time>2007-08-22T10:43:02Z</time>
      </trkpt>
      <trkpt lat="43.83311" lon="5.7676">
        <ele>374</ele>
        <time>2007-08-22T10:43:02Z</time>
      </trkpt>
      <trkpt lat="43.8327" lon="5.77074">
        <ele>366</ele>
        <time>2007-08-22T10:43:02Z</time>
      </trkpt>
      <trkpt lat="43.83184" lon="5.77373">
        <ele>362</ele>
        <time>2007-08-22T10:43:02Z</time>
      </trkpt>
      <trkpt lat="43.83111" lon="5.77674">
        <ele>356</ele>
        <time>2007-08-22T10:43:02Z</time>
      </trkpt>
      <trkpt lat="43.8312" lon="5.77829">
        <ele>356</ele>
        <time>2007-08-22T10:43:02Z</time>
      </trkpt>
      <trkpt lat="43.83076" lon="5.78075">
        <ele>361</ele>
        <time>2007-08-22T10:43:02Z</time>
      </trkpt>
      <trkpt lat="43.8303" lon="5.7824">
        <ele>363</ele>
        <time>2007-08-22T10:43:02Z</time>
      </trkpt>
      <trkpt lat="43.83136" lon="5.78309">
        <ele>378</ele>
        <time>2007-08-22T10:43:02Z</time>
      </trkpt>
    </trkseg>
  </trk>
</gpx>